DW3169 Weather Reports


time (UTC)temp
F
wind
direction
speed
knots
gust
knots
rain 1hr
in
rain 24hr
in
rain mn
in
humidity
%
barometer
mb
20260503192709 62 161 0.0 0.0 0.00 0.00 0.00 71 1012.8
20260503185441 60 200 0.0 0.0 0.00 0.00 0.00 78 1013.1
20260503184425 59 107 0.0 0.0 0.00 0.00 0.00 79 1013.0
20260503183409 58 355 0.0 0.0 0.00 0.00 0.00 80 1013.0
20260503182340 58 132 0.0 0.0 0.00 0.00 0.00 79 1013.1
20260503180215 59 188 0.0 0.0 0.00 0.00 0.00 78 1013.0
20260503175145 59 184 0.0 0.0 0.00 0.00 0.00 80 1012.9
20260503174146 58 131 0.0 0.0 0.00 0.00 0.00 85 1012.9
20260503173126 57 176 0.0 0.0 0.00 0.00 0.00 86 1012.9
20260503172105 57 257 0.0 0.0 0.00 0.00 0.00 86 1012.9
20260503171058 58 215 0.0 0.0 0.00 0.00 0.00 81 1013.0
20260503131258 54 264 0.0 0.0 0.00 0.00 0.00 84 1011.0
20260503130321 54 265 0.0 0.0 0.00 0.00 0.00 84 1010.9
20260503120155 54 163 0.0 0.0 0.00 0.00 0.00 84 1011.0
20260503110110 54 118 0.0 0.0 0.00 0.00 0.00 84 1011.0
20260503081426 54 185 0.0 0.0 0.00 0.00 0.00 84 1011.7
20260503080404 54 176 0.0 0.0 0.00 0.00 0.00 85 1011.8
20260503072335 54 151 0.0 0.0 0.00 0.00 0.00 85 1011.7
20260503071323 54 138 0.0 0.0 0.00 0.00 0.00 85 1011.8
20260503070345 54 126 0.0 0.0 0.00 0.00 0.00 85 1011.7
20260503060251 54 190 0.0 0.0 0.00 0.00 0.00 84 1012.0
20260503054236 54 187 0.0 0.0 0.00 0.00 0.00 84 1012.2
20260503053254 54 162 0.0 0.0 0.00 0.00 0.00 84 1012.1
20260503052258 54 186 0.0 0.0 0.00 0.00 0.00 84 1012.2
20260503051229 54 160 0.0 0.0 0.00 0.00 0.00 83 1012.2
20260503050230 54 163 0.0 0.0 0.00 0.00 0.00 84 1012.2
20260503045201 54 190 0.0 0.0 0.00 0.00 0.00 84 1012.2
20260503044154 54 241 0.0 0.0 0.00 0.00 0.00 84 1012.2
20260503043207 55 159 0.0 0.0 0.00 0.00 0.00 85 1012.0
20260503042206 55 157 0.0 0.0 0.00 0.00 0.00 84 1011.9
20260503041229 55 269 0.0 0.0 0.00 0.00 0.00 84 1011.8
20260503040234 55 177 0.0 0.0 0.00 0.00 0.00 84 1011.9
20260503035245 55 165 0.0 0.0 0.00 0.00 0.00 84 1011.9
20260503034219 55 130 0.0 0.0 0.00 0.00 0.00 85 1011.8
20260503033219 55 134 0.0 0.0 0.00 0.00 0.00 84 1011.7
20260503032210 55 166 0.0 0.0 0.00 0.00 0.00 84 1011.6
20260503031205 55 161 0.0 0.0 0.00 0.00 0.00 84 1011.4
20260503030153 55 178 0.0 0.0 0.00 0.00 0.00 84 1011.2
20260503025147 55 128 0.0 0.0 0.00 0.00 0.00 84 1011.2
20260503024133 55 74 0.0 0.0 0.00 0.00 0.00 83 1011.3
20260503023149 56 159 0.0 0.0 0.00 0.00 0.00 82 1011.2
20260503020947 56 164 0.0 0.0 0.00 0.00 0.00 81 1011.3
20260503015938 56 165 0.0 0.0 0.00 0.00 0.00 81 1011.3
20260503014944 56 152 0.0 0.0 0.00 0.00 0.00 80 1011.3
20260503013920 57 145 0.0 0.0 0.00 0.00 0.00 78 1011.5
20260503012915 57 178 0.0 0.0 0.00 0.00 0.00 76 1011.5
20260503011926 58 148 0.0 0.0 0.00 0.00 0.00 76 1011.5
20260503010857 58 165 0.0 0.0 0.00 0.00 0.00 76 1011.5
20260503005859 58 147 0.0 0.0 0.00 0.00 0.00 74 1011.5
20260503003739 59 190 0.0 0.0 0.00 0.00 0.00 74 1011.6
20260503002756 60 159 0.0 0.0 0.00 0.00 0.00 73 1011.6
20260503001754 60 170 0.0 0.0 0.00 0.00 0.00 73 1011.6
20260503000816 60 196 0.0 0.0 0.00 0.00 0.00 73 1011.7
20260502235802 60 255 0.0 0.0 0.00 0.00 0.00 72 1011.7
20260502234800 61 153 0.0 0.0 0.00 0.00 0.00 71 1011.8
20260502233806 61 158 0.0 0.0 0.00 0.00 0.00 72 1011.9
20260502232802 62 180 0.0 0.0 0.00 0.00 0.00 70 1011.9
20260502231728 62 145 0.0 0.0 0.00 0.00 0.00 71 1012.0
20260502225543 62 107 0.0 0.0 0.00 0.00 0.00 70 1012.5
20260502224539 62 277 0.0 0.0 0.00 0.00 0.00 72 1012.5
20260502223557 62 185 0.0 0.0 0.00 0.00 0.00 69 1012.6
20260502222616 62 198 0.0 0.0 0.00 0.00 0.00 68 1012.8
20260502221602 63 9 0.0 0.0 0.00 0.00 0.00 69 1013.0
20260502220602 62 183 0.0 0.0 0.00 0.00 0.00 69 1013.1
20260502215535 62 202 0.0 0.0 0.00 0.00 0.00 70 1013.2
20260502214502 61 186 0.0 0.0 0.00 0.00 0.00 73 1013.2
20260502213440 60 130 0.0 0.0 0.00 0.00 0.00 73 1013.2
20260502212418 60 166 0.0 0.0 0.00 0.00 0.00 74 1013.2
20260502211346 60 222 0.0 0.0 0.00 0.00 0.00 74 1013.3
20260502210336 59 181 0.0 0.0 0.00 0.00 0.00 74 1013.5
20260502205330 59 160 0.0 0.0 0.00 0.00 0.00 76 1013.6
20260502204323 59 254 0.0 0.0 0.00 0.00 0.00 77 1013.7
20260502203257 58 234 0.0 0.0 0.00 0.00 0.00 77 1013.8
20260502202227 58 169 0.0 0.0 0.00 0.00 0.00 78 1013.8
20260502201230 58 189 0.0 0.0 0.00 0.00 0.00 79 1013.9
20260502200251 58 163 0.0 0.0 0.00 0.00 0.00 80 1014.0
20260502194208 57 262 0.0 0.0 0.00 0.00 0.00 82 1014.0
20260502193223 57 196 0.0 0.0 0.00 0.00 0.00 82 1014.1